Flag for Germany Weather past 2 weeks in Frankfurt an der Oder, Brandenburg, Germany

Now
59 °F

Passing clouds.


Feels Like: 59 °F
Forecast: 67 / 93 °F
Wind: 2 mph from East

Location: Lindenberg

Current Time: Aug 3, 2015 at 6:53:37 AM

Latest Report: Aug 3, 2015 at 6:00 AM


Visibility: 16 mi

Pressure: 30.10 "Hg

Humidity: 76%

Dew point: 51 °F

Location of Frankfurt an der OderLocation

Historic Weather in Frankfurt an der Oder — Graph

°F

Frankfurt an der Oder temperature yesterday

Maximum temperature yesterday: 85 °F (at 5:00 PM)
Minimum temperature yesterday: 57 °F (at 6:00 AM)
Average temperature yesterday: 74 °F

Past Weeks' High & Low Weather Summary

 TemperatureHumidityPressure
High85 °F (Aug 2, 5:00 PM)96% (Jul 21, 8:00 AM)30.10 "Hg (Jul 21, 8:00 AM)
Low51 °F (Aug 1, 3:00 AM)24% (Aug 2, 3:00 PM)29.56 "Hg (Jul 27, 3:00 PM)
Average66 °F62%29.86 "Hg
* Reported Jul 19 5:00 AM — Aug 3 5:00 AM, Frankfurt an der Oder, Weather by CustomWeather, © 2015

Note: Actual official high and low records may vary slightly from our data, if they occured in-between our weather recording intervals... More about our weather records

Advertising

Frankfurt an der Oder weather history for previous 24 hours

 ConditionsComfort  
Time TempWeatherWind HumidityBarometerVisibility
5:00 AM
Mon, Aug 3
59 °FClear.2 mph73%30.09 "Hg19 mi
4:00 AM60 °FClear.3 mph73%30.09 "Hg19 mi
3:00 AM61 °FClear.3 mph68%30.09 "Hg19 mi
2:00 AM62 °FClear.3 mph68%30.09 "Hg22 mi
1:00 AM65 °FPassing clouds.3 mph59%30.10 "Hg22 mi
10:00 PM
Sun, Aug 2
69 °FPassing clouds.2 mph48%30.09 "Hg22 mi
9:00 PM72 °FPassing clouds.1 mph46%30.06 "Hg22 mi
8:00 PM78 °FScattered clouds.2 mph34%30.05 "Hg22 mi
7:00 PM84 °FScattered clouds.3 mph25%30.04 "Hg22 mi
6:00 PM85 °FPartly sunny.2 mph25%30.04 "Hg22 mi
5:00 PM85 °FPartly sunny.2 mph25%30.05 "Hg22 mi
4:00 PM85 °FScattered clouds.2 mph25%30.05 "Hg19 mi
3:00 PM84 °FScattered clouds.2 mph24%30.06 "Hg19 mi
2:00 PM82 °FScattered clouds.3 mph25%30.07 "Hg19 mi
1:00 PM82 °FPartly sunny.2 mph28%30.07 "Hg19 mi
12:00 PM79 °FPartly sunny.1 mph33%30.07 "Hg19 mi
11:00 AM78 °FScattered clouds.1 mph35%30.07 "Hg16 mi
10:00 AM74 °FScattered clouds.1 mph47%30.06 "Hg16 mi
9:00 AM68 °FScattered clouds.1 mph51%30.06 "Hg16 mi
8:00 AM64 °FScattered clouds.1 mph65%30.05 "Hg16 mi
7:00 AM59 °FPartly sunny.2 mph72%30.04 "Hg19 mi
6:00 AM57 °FPartly sunny.3 mph73%30.03 "Hg25 mi
Weather by CustomWeather, © 2015

See weather overviewHow to use our weather pages